Погода в Херсоне

Хотите узнать прогноз погоды в Херсоне? Тогда Вам сюда: Погода в Херсоне

Поиск расширенной информации на нашем сайте:

Полезная информация:

Новости сайта



02.01.2020
Опубликован Долгосрочный прогноз погоды по городам России и ближнего зарубежья на январь 2020 года.
Карты: Прогноз на январь и февраль 2020 года, Сравнение прогнозируемой аномалии приземной температуры воздуха на январь 2020 года по разным моделям.




Погода в Херсоне - сегодня

Время (UTC), дата Ветер
(°,м/с) 
Видим.   Явления Облачность Т
(°С)
Тd
(°С)
f(%) Тe
(°С)
Pmin
(гПа)
dP
(гПа)
Po
(мм)
O2
(г/м3)
Тmin Tmax R s Состояние
почвы
21 22.09.20 080 (В) 10 км    ясно 
+13.6 +4.1 53 +15  1020.2  -0.4  761  291           
00 23.09.20 340 (С) 10 км    ясно 
+10.2 +5.1 71 +11  1019.6  -0.7  760  295           
03 23.09.20 060 (СВ) 10 км    ясно 
+8 +5.8 86 +9  1019.4  -0.2  760  297           
06 23.09.20 060 (СВ) 10 км    ясно 
+14.8 +7.3 61 +15  1018.9  -0.4  760  289  +7.1  +2       
09 23.09.20 100 (В) 10 км    ясно 
+24.3 +6.4 32 +24  1017.6  -1.1  759  280           
12 23.09.20 100 (В) 10 км    ясно 
+27.3 +5.7 25 +27  1015.5  -2  758  277           
15 23.09.20 110 (В) 10 км    ясно 
+26.4 +3.3 22 +26  1014.4  -1.2  757  278           
18 23.09.20 130 (ЮВ) 10 км    ясно 
+18.6 +9.3 55 +20  1014.9  0.4  757  284    +28.4       
21 23.09.20 тихо ()   4000 м  дымка  ясно 
+14.9 +12.3 84 +19  1014.9  0.1  757  287           
00 24.09.20 070 (В) 4000 м  дымка  ясно 
+12.6 +10.7 88 +16  1014.5  -0.4  757  289           
03 24.09.20 060 (СВ) 4000 м  дымка  ясно 
+11.2 +9.6 90 +13  1013.9  -0.6  756  291           
06 24.09.20 090 (В) 10 км    6/0 верхняя 
[Ci]
+17.4 +12.1 71 +22  1014.1  0.3  756  284  +10.6         
09 24.09.20 100 (В) 20000 м    4/0 верхняя 
[Ci fib]
+25 +9.4 37 +25  1013.7  -0.3  756  277           
12 24.09.20 140 (ЮВ) 20000 м    8/0 верхняя 
[Ci]
+28.4 +9 30 +28  1012.5  -1.1  755  274           
15 24.09.20 170 (Ю) 20000 м    3/0 верхняя 
[Ci fib]
+26.2 +9.5 35 +27  1012.5  755  276           
18 24.09.20 260 (З) 10 км    ясно 
+18.5 +12.6 68 +25  1013.7  756  283           
21 24.09.20 270 (З) 4000 м  дымка  ясно 
+15.4 +13.2 87 +23  1013.7  756  286           
00 25.09.20 290 (З) 2000 м  дымка  ясно 
+15 +14.3 96 +23  1013.1  -0.6  756  286           
03 25.09.20 290 (З) 0500 м  туман  8/0 верхняя 
[Cc]
+12.8 +12.8 100 +18  1012.9  -0.3  755  288           
06 25.09.20 070 (В) 10 км  {туман}  6/0 верхняя 
[Cc]
+18 +14.4 79 +26  1012.7  -0.1  755  283  +12.4        затоплена
водой 
09 25.09.20 090 (В) 20000 м    3/3 2000 м средняя 
[Ac lent]
+24.8 +10.2 40 +26  1012.4  -0.2  755  277           
12 25.09.20 090 (В) 20000 м    9/3 1000 м средняя, верхняя 
[Cu hum|Ac lent|Cc]
+27.6 +11.4 36 +31  1010.6  -1.7  754  274           
15 25.09.20 100 (В) 20000 м    4/3 1000 м средняя 
[Cu med, cong|Ac cuf]
+26.2 +13.5 45 +32  1009.5  -1.1  753  274           
18 25.09.20 220 (ЮЗ) 10 км    ясно 
+20.5 +14.9 70 +29  1009.8  0.2  753  279    +28.7       
21 25.09.20 100 (В) 10 км    ясно 
+17.8 +14.3 80 +26  1009.8  -0.1  753  282           
Время (UTC), дата Ветер
(°,м/с) 
Видим.   Явления Облачность Т
(°С)
Тd
(°С)
f(%) Тe
(°С)
Pmin
(гПа)
dP
(гПа)
Po
(мм)
O2
(г/м3)
Тmin Tmax R s Состояние
почвы

Для получения пояснительной информации подведите курсор к названию столбца.

ПОГОДА в Херсоне - архив

Всё, что Вы хотите узнать о погоде в Херсоне - удобно и подробно!

Выберите нужную дату (начиная с 1 января 2019* года) и нажмите кнопку "Найти".
Будут отображены архивные сводки погоды по пункту Херсон, начиная с указанной даты.


Отображать данные в формате CSV (для использования в таблицах Excel)


Внимание! Наш архив погоды предназначен исключительно для личного некоммерческого использования в познавательных целях. Если Вам необходимы официальные справки о состоянии погоды (для производственных, юридических, коммерческих и т.п. целей), обращайтесь в органы Росгидромета.

*Примечание: данная дата относится к архиву по метеостанциям СССР (Россия, СНГ, Балтия).
Архив по метеостанциям Зарубежной Европы и Азии (кроме Китая) хранится 10 дней, по другим регионам земного шара (Китай, Африка, Америка, Австралия, Океания) - 1 день.

Херсон - район местоположения метеостанции


Название, широта, долгота, высота метеостанции:
Херсон 46.6°ш. 32.6°д. 54 м над ур. моря [Украина]

Дополнительная информация

В oтличие oт бoльшинства пoгoдных сайтoв мы публикуем пoдрoбную метеoинфoрмацию в детальнoм прoфессиoнальнoм фoрмате.

Характеристики температуры и влажнoсти вoздуха измеряются на высoте 2 м в тени вдали oт зданий и деревьев.
Скoрoсть ветра измеряется на высoте 10 м (на урoвне рoста челoвека скoрoсть ветра ниже в 1.5-2 раза). Если метеoстанция нахoдится в гoрoде или в лесу, тo скoрoсть ветра занижена на 2-4 м/с пo сравнению с oткрытым местoм. Скoрoсть ветра над акватoриями крупных рек и oзёр, а также на вершинах хoлмoв на 2-5 м/с выше, чем в oбычных услoвиях.
Атмoсфернoе давление в разных тoчках местнoсти мoжет значительнo oтличаться oт давления на метеoстанции, в зависимoсти oт услoвий рельефа (при пoдъёме на 10 м давление пoнижается примернo на 1 мм рт.ст.).